Tracking 31027 objects as of 19-Jul-2025
HD Live streaming from Space Station
objects crossing your sky now

COSMOS 1408 DEB

Track COSMOS 1408 DEB now!
10-day predictions


NORAD ID: 50032
Int'l Code: 1982-092RU
Perigee: 430.0 km
Apogee: 453.7 km
Inclination: 82.6 °
Period: 93.3 minutes
Semi major axis: 6812 km
RCS: Unknown
Launch date: September 16, 1982
Source: Commonwealth of Independent States (former USSR) (CIS)
Launch site: PLESETSK MISSILE AND SPACE COMPLEX (PKMTR)

Note: This is SATELLITE DEBRIS
Your satellite tracking list
FLOCK 4X 28
Track 1 satellite(s)




NASA's NSSDC Master Catalog

Two Line Element Set (TLE):
1 50032U 82092RU  25199.47137442  .00003483  00000-0  75468-4 0  9991
2 50032  82.5630 209.1936 0017363  33.9698 326.2658 15.43869766203309
Source of the keplerian elements: AFSPC